RH
38 38 38 39 39 41 41 43 45 47 50 51 52 55 56 58 61 62 64 65 65 65 66 67 68 69 69 70 72 73 74 75 76 76 76 78 80 81 84 85 89 95 91 83 80 77 75 75 73 71 70 68 66 65 65 67 69 70 72 73 70 68 71
39 38 39 39 40 42 43 45 47 49 52 53 54 57 59 62 64 65 66 67 68 68 68 70 72 73 74 73 75 76 77 78 77 79 80 80 83 85 86 88 91 94 93 88 83 82 80 78 76 73 71 70 68 66 66 66 68 69 69 69 70 71 72
39 39 40 41 42 45 46 47 49 51 53 55 57 60 62 64 66 67 69 69 71 72 73 75 77 77 77 76 78 79 79 80 80 81 83 84 85 89 90 90 92 95 96 92 88 86 84 81 79 75 73 71 69 67 67 68 67 67 67 66 68 71 68
40 40 41 43 45 47 48 50 51 53 56 57 60 62 64 67 68 68 70 72 75 76 78 80 81 80 78 78 83 84 83 84 85 84 86 89 90 92 93 94 95 97 97 95 92 88 85 83 80 78 76 74 71 70 69 70 68 68 69 67 66 69 68
41 42 43 45 47 49 50 52 53 56 59 59 62 65 67 69 69 69 72 75 77 79 81 83 83 81 80 83 87 88 88 87 87 87 90 92 94 95 95 96 98 99 98 97 94 90 86 86 83 81 80 77 75 74 71 71 71 70 71 71 69 70 72
43 44 46 47 49 51 52 54 56 57 59 61 63 67 70 71 70 70 73 78 80 80 79 81 83 82 83 87 90 91 92 91 90 91 92 94 95 96 97 99 100 101 101 99 97 94 90 88 85 82 81 78 75 74 74 73 73 72 71 74 75 74 71
46 46 48 49 51 54 55 56 58 59 61 63 67 70 72 73 72 72 75 78 78 78 79 82 84 86 88 91 94 94 94 94 94 95 96 97 98 98 100 103 103 103 105 103 100 98 94 91 87 82 81 79 75 75 76 76 77 78 75 74 75 74 70
49 49 51 52 54 56 58 59 61 62 64 67 69 71 73 72 72 75 79 81 82 84 88 90 91 92 92 93 94 95 95 95 94 96 99 98 99 101 103 105 105 104 105 104 102 99 95 92 90 86 83 82 80 82 82 78 78 80 77 73 72 72 71
52 53 54 56 58 60 61 62 64 65 66 70 74 77 80 81 84 89 91 93 95 95 96 97 96 95 92 90 91 92 91 90 90 95 100 99 99 102 104 105 105 105 104 103 101 100 97 95 93 89 86 84 83 83 81 76 75 77 76 73 73 71 70
55 57 59 60 62 63 64 66 66 66 73 85 92 94 96 98 98 99 100 100 100 100 99 100 99 97 95 94 95 95 95 96 97 100 101 100 100 101 102 103 103 102 101 101 102 100 97 98 97 91 86 85 82 79 78 76 76 77 76 75 79 78 71
60 62 63 64 66 66 67 69 68 73 87 100 101 98 101 104 101 100 101 101 100 101 101 100 100 100 100 100 100 99 98 98 100 101 101 101 101 101 100 101 103 104 102 99 101 101 99 100 99 92 86 84 82 80 80 79 79 81 81 82 88 90 77
64 66 66 68 69 70 72 72 73 85 99 103 99 93 93 100 103 101 100 100 100 100 100 100 100 100 100 99 98 97 98 96 94 97 101 102 101 101 102 95 90 96 104 104 102 101 100 99 98 93 89 86 83 83 83 83 83 83 85 86 89 92 83
69 70 70 72 74 75 78 78 80 93 103 102 101 96 90 95 103 101 99 101 101 100 101 101 100 101 100 99 97 96 97 97 96 97 101 102 100 99 99 88 71 70 85 97 102 104 102 98 96 96 92 85 83 86 88 89 89 86 88 90 88 88 83
73 74 75 78 80 81 85 84 85 96 104 102 101 100 96 98 102 100 100 101 100 100 101 100 100 102 102 100 98 96 93 94 96 97 97 97 94 88 87 84 71 62 66 76 88 99 101 94 91 94 91 82 82 90 94 94 92 89 89 90 88 85 82
78 81 82 84 86 89 91 90 91 100 104 100 100 101 100 101 101 100 101 101 100 101 100 98 99 100 101 102 101 97 96 97 98 97 96 95 94 89 85 84 79 74 75 76 79 86 90 87 84 85 84 77 76 83 88 89 91 91 90 92 93 92 90
85 88 88 90 93 96 98 95 96 103 104 101 101 101 100 100 101 100 101 100 100 100 97 96 98 97 99 103 99 95 97 94 92 99 102 99 98 98 94 91 87 82 78 76 79 84 85 83 82 82 84 83 83 87 89 91 96 98 99 102 102 100 96
92 93 96 98 99 102 104 99 97 103 105 102 101 100 99 101 101 99 101 100 98 97 96 94 93 94 100 102 97 99 96 77 70 91 104 101 100 102 99 97 96 91 80 74 80 88 88 86 87 90 91 88 86 89 95 103 104 99 99 103 103 100 95
98 98 100 103 102 103 105 101 97 102 105 102 100 101 100 100 100 100 101 100 97 95 95 93 89 91 102 104 100 104 97 67 60 85 103 102 102 102 101 99 97 94 89 84 84 86 86 83 84 86 85 77 72 73 80 93 97 90 90 94 94 91 88
102 103 101 101 103 103 104 104 98 96 102 105 102 102 101 100 100 101 100 100 100 98 96 96 91 88 98 104 103 103 95 77 77 96 103 101 103 103 102 99 93 92 96 97 95 91 85 79 75 74 71 65 62 60 60 67 75 81 90 94 91 86 85
104 105 101 99 102 103 103 104 96 89 98 107 104 100 101 100 99 100 100 100 101 99 98 98 94 90 91 97 102 103 91 75 77 88 91 93 101 103 98 93 92 95 98 96 91 84 75 66 61 59 57 56 55 55 56 61 68 79 91 98 98 95 92
102 105 102 98 102 103 101 100 94 86 92 103 105 100 99 101 101 100 101 101 100 101 102 100 98 95 91 94 102 100 81 66 68 78 84 90 97 98 94 96 98 96 90 83 78 74 71 68 64 63 64 66 66 66 68 70 72 80 90 97 102 104 101
102 105 104 100 99 100 97 93 90 84 83 91 102 104 100 100 100 98 99 102 101 100 100 100 101 100 96 98 99 83 64 65 78 86 90 95 98 99 99 99 95 86 79 78 79 81 85 87 86 84 82 81 81 80 79 79 80 85 93 96 98 101 101
104 105 104 100 97 97 94 89 84 81 76 76 86 99 104 99 92 91 96 102 102 101 102 103 101 93 81 76 73 63 61 77 93 97 97 96 95 97 96 89 81 76 76 81 87 93 98 98 97 96 93 91 91 90 89 90 90 91 95 98 98 98 98
103 102 102 100 98 96 92 87 80 75 73 69 71 89 104 99 88 90 99 104 103 101 98 92 85 76 67 62 65 72 82 91 93 94 97 95 91 88 83 76 71 72 78 89 97 101 103 100 97 97 96 95 96 95 95 96 95 94 96 97 97 94 93
102 101 101 100 101 97 89 84 79 74 73 72 72 83 95 94 91 96 103 103 99 93 88 85 84 82 82 83 88 95 95 88 81 83 89 90 84 78 72 69 70 74 85 98 104 102 101 100 98 97 97 96 97 97 98 98 97 96 95 95 95 94 93
102 103 102 101 101 98 89 83 81 79 78 78 80 84 84 82 83 87 89 89 88 85 86 92 96 96 96 97 100 102 98 91 86 85 85 82 76 71 69 70 74 83 96 104 104 102 102 101 99 98 98 98 98 98 98 98 98 99 98 98 98 96 95
102 103 103 101 99 97 92 90 90 90 87 86 87 85 80 77 78 79 80 83 84 84 86 91 96 100 102 101 101 101 97 91 85 81 77 75 73 71 71 76 84 94 101 102 101 102 103 101 99 99 99 98 98 99 99 98 98 100 99 97 95 93 89
104 103 101 100 100 98 98 98 98 96 94 91 89 85 82 82 85 87 90 92 92 92 96 99 101 102 100 95 92 88 83 77 73 73 75 76 77 76 78 86 95 98 96 96 99 102 102 100 99 99 98 98 99 99 97 95 96 98 99 97 95 90 87
102 102 100 100 101 100 100 101 100 99 98 97 95 94 95 96 96 96 98 99 100 101 102 101 98 92 86 81 77 74 73 73 75 80 83 83 84 85 89 94 99 99 97 98 101 102 101 101 101 99 98 99 100 99 95 93 96 99 99 98 96 90 87
101 101 101 102 102 101 101 101 100 99 99 98 92 87 89 94 99 102 102 101 102 102 97 92 86 81 76 73 73 75 79 83 89 93 94 91 90 92 96 99 101 102 102 102 102 102 101 101 101 100 100 101 100 98 95 95 98 99 98 97 95 92 91
101 101 101 102 102 102 101 101 99 97 99 100 94 85 81 84 92 100 102 100 100 98 91 84 79 76 73 74 78 84 89 93 99 102 101 99 97 97 99 101 102 103 103 103 103 103 102 102 101 100 101 101 100 99 98 98 98 97 97 97 95 93 94
101 100 100 100 100 100 100 100 100 99 99 101 100 96 93 91 93 98 101 100 98 94 86 79 77 76 77 80 84 89 93 98 102 103 103 104 103 101 101 102 102 102 104 104 104 102 101 101 101 100 101 101 100 100 100 99 98 98 98 98 96 94 94
102 101 102 101 101 102 101 100 101 101 100 100 100 99 100 101 98 98 101 101 96 89 82 78 78 78 80 84 88 91 95 99 101 102 104 106 106 105 103 102 101 102 103 103 102 102 101 101 100 100 101 101 100 101 101 100 99 99 98 96 95 93 93
98 99 101 101 101 103 103 101 101 100 99 101 101 98 97 100 100 101 102 99 91 84 82 81 81 82 83 86 89 92 95 98 100 101 103 105 106 106 105 102 100 101 103 103 103 102 101 101 100 101 101 101 101 101 100 100 100 99 97 96 94 93 93
95 94 94 96 99 102 102 101 100 99 99 100 100 97 96 100 101 98 94 88 82 82 86 87 88 87 87 88 91 93 95 97 98 100 102 104 105 107 108 105 101 102 104 104 103 102 101 101 100 100 100 101 101 101 100 100 101 100 99 98 95 93 93
98 94 93 94 96 98 100 100 99 100 100 100 101 102 103 101 95 87 84 82 82 85 90 91 91 91 89 90 93 94 94 96 97 98 100 102 105 108 109 107 103 102 103 102 101 101 101 101 101 101 100 100 101 101 100 100 101 100 100 99 96 94 93
Wind_Speed
22 23 23 23 23 23 23 24 24 24 23 23 23 22 22 22 23 24 24 24 24 24 24 25 25 25 24 23 24 25 24 24 23 23 24 23 23 24 21 21 20 15 19 28 29 31 30 24 24 28 27 29 33 31 28 27 28 28 27 28 31 33 32
23 23 23 24 24 24 24 24 24 24 24 24 23 23 23 23 23 24 25 25 26 26 25 25 25 25 25 24 25 25 24 25 24 23 25 25 23 25 24 21 22 20 18 25 28 28 29 25 24 29 28 26 31 32 28 28 28 28 29 31 32 33 33
24 24 24 24 24 24 24 24 24 25 25 24 24 24 24 25 25 25 26 27 27 27 25 25 25 26 25 25 25 26 25 25 25 25 25 27 25 25 26 24 23 23 21 25 28 27 26 22 20 26 27 24 30 33 31 32 34 33 33 35 35 35 36
24 24 25 25 25 24 24 24 25 25 25 25 25 25 26 26 26 27 28 28 27 27 26 25 26 26 26 26 25 26 25 25 25 26 26 27 27 25 27 26 24 24 24 25 28 27 25 21 20 24 26 25 30 35 34 35 36 35 34 35 36 37 38
24 25 26 26 26 25 25 25 26 26 26 26 26 26 27 27 28 29 29 29 28 28 27 27 27 28 27 26 26 26 26 26 26 28 28 28 28 27 27 27 25 24 24 25 28 28 26 22 21 24 27 26 28 33 35 34 34 34 34 35 36 36 36
25 26 27 27 26 26 26 26 26 27 27 28 28 28 28 29 30 31 30 30 29 29 29 28 28 29 27 27 28 28 28 28 28 29 30 30 30 29 28 28 28 27 26 26 28 29 27 24 21 23 27 26 26 30 32 32 33 35 35 33 32 33 34
26 27 27 27 27 27 27 27 27 28 29 29 30 30 30 31 32 32 31 30 30 29 29 29 29 29 29 29 30 30 30 30 30 31 32 32 32 31 30 29 29 29 27 26 27 27 27 25 21 23 27 28 28 29 30 30 30 32 35 33 31 32 33
26 27 27 27 28 28 28 28 29 29 30 31 31 31 32 33 33 32 31 31 31 30 29 30 30 30 31 31 31 31 31 31 31 32 33 33 32 31 30 30 29 29 27 26 27 27 26 25 22 23 27 29 27 25 27 30 27 27 32 34 34 35 35
26 27 28 28 29 29 29 30 30 31 31 32 33 33 34 34 32 31 30 30 30 30 30 31 32 32 32 31 31 31 31 31 31 32 33 34 32 31 31 30 30 29 27 26 26 26 26 24 21 23 27 28 26 24 27 32 30 29 33 36 37 41 40
26 27 28 29 30 30 31 31 32 32 32 31 31 32 32 31 30 29 29 29 30 30 30 30 30 30 30 29 29 29 29 30 30 31 33 33 32 30 29 29 29 29 28 27 25 26 26 21 18 24 29 31 32 32 32 34 33 33 35 33 29 34 42
27 28 29 30 31 31 32 32 33 33 31 30 30 32 31 30 29 29 28 29 29 28 27 26 27 28 27 27 27 27 28 30 31 32 32 33 33 31 31 31 29 29 28 27 26 27 26 20 19 27 32 34 36 35 33 34 33 31 30 26 18 18 30
28 29 30 30 31 31 32 33 34 32 30 30 31 31 31 30 29 28 28 27 26 25 25 25 26 26 26 27 28 29 30 32 33 33 32 32 33 32 34 36 35 34 31 28 26 25 25 24 25 28 32 36 38 37 35 33 32 32 30 26 20 16 26
29 30 30 30 31 32 33 33 34 31 29 30 31 31 32 31 29 27 25 24 23 24 24 24 25 26 28 29 29 29 30 31 33 33 32 31 32 33 36 37 39 39 36 34 31 27 27 29 28 28 32 38 40 37 34 30 32 35 32 27 26 27 34
29 30 30 30 31 32 33 34 34 31 29 30 30 30 31 30 28 25 23 23 23 23 24 25 26 27 28 28 28 28 28 29 31 32 32 33 34 36 38 38 39 40 39 38 37 35 36 38 36 35 38 42 42 38 34 32 34 37 35 32 33 36 39
29 30 30 30 30 31 33 34 33 30 28 29 29 29 30 29 27 25 24 24 24 24 25 26 26 27 28 28 28 28 27 28 29 31 32 34 35 37 38 38 39 39 39 41 41 41 42 43 42 43 44 45 46 44 42 41 41 41 40 36 34 35 37
29 29 30 30 30 30 32 34 32 28 28 29 29 28 29 28 26 25 24 25 25 25 26 26 25 27 28 28 28 28 27 27 28 31 32 34 36 36 37 37 38 38 40 41 42 43 44 44 44 45 44 44 44 43 42 40 37 37 36 31 25 25 30
29 29 30 30 30 30 31 33 32 28 27 28 28 27 28 27 26 25 25 25 26 26 26 26 26 27 27 28 28 27 27 27 28 31 33 33 33 33 33 34 35 36 39 41 40 39 39 38 37 36 36 37 36 35 32 27 23 25 25 20 12 12 20
29 29 30 30 29 29 30 33 32 28 27 28 27 27 27 26 25 24 24 25 25 26 26 27 27 26 26 27 27 27 28 29 31 32 31 30 29 30 31 33 33 35 37 36 36 35 35 34 34 32 33 36 37 37 33 25 22 23 23 20 13 12 17
29 30 30 30 29 29 29 31 32 29 27 28 27 26 26 26 25 24 24 24 25 26 27 27 27 26 24 26 27 27 30 31 31 30 28 27 28 28 29 30 30 29 27 25 26 29 32 35 36 36 37 38 39 40 36 31 28 26 23 21 20 19 16
28 29 31 30 29 29 29 30 31 30 28 27 27 26 26 26 25 23 23 24 25 27 27 26 27 27 25 25 26 27 30 31 30 30 30 29 27 24 24 26 24 21 19 20 24 28 31 34 36 37 37 38 38 38 35 32 30 27 24 23 23 23 18
28 29 31 31 30 29 29 29 29 30 28 26 26 25 25 26 25 23 24 25 26 26 26 26 26 26 25 24 25 28 30 30 30 31 31 28 23 21 21 20 17 18 21 24 27 29 30 32 33 34 35 34 34 34 32 31 30 28 26 25 25 25 22
28 28 30 31 30 29 29 28 28 28 27 25 25 24 24 25 26 26 25 25 26 26 27 26 25 24 24 25 26 28 29 29 29 29 27 22 19 19 18 17 18 22 25 26 26 27 27 28 28 29 30 30 30 30 29 29 30 29 27 27 29 30 28
27 27 28 30 30 29 28 28 27 26 25 24 24 24 25 26 28 28 28 27 26 24 23 22 22 23 25 26 27 28 28 27 25 22 20 19 20 20 20 22 25 26 25 24 24 24 24 25 24 25 27 27 27 28 27 28 30 31 30 31 32 34 34
25 24 25 27 28 28 28 27 26 25 24 24 25 26 26 28 29 29 28 26 24 22 21 22 24 25 26 27 27 27 26 23 21 19 19 20 22 23 24 26 27 26 24 23 22 21 22 23 22 23 25 25 26 28 29 30 33 34 34 34 35 36 36
23 23 23 25 26 28 29 28 27 26 25 26 27 28 27 27 28 28 26 25 24 25 25 26 26 26 26 26 25 24 23 23 24 23 23 23 24 25 26 26 26 25 22 21 21 21 22 24 23 23 26 27 28 30 31 31 33 34 33 33 34 34 35
23 22 23 23 25 28 30 29 28 29 29 28 28 28 26 25 26 26 25 25 26 27 27 27 26 25 24 23 21 20 21 23 24 24 25 25 26 25 25 24 22 21 20 20 21 22 23 24 25 26 27 28 29 29 29 28 29 31 31 29 28 28 29
22 21 22 24 26 28 30 30 29 30 30 28 26 25 24 25 26 26 26 27 28 28 28 28 26 23 20 19 19 19 20 21 23 24 25 25 25 24 22 20 18 17 19 21 22 22 24 26 27 27 27 27 27 26 25 24 24 26 27 25 24 24 25
23 23 24 25 27 28 28 28 28 27 27 25 23 24 25 26 27 27 28 29 29 28 25 23 20 18 17 18 19 19 21 22 23 23 23 23 22 21 20 17 16 17 19 20 20 22 24 25 25 26 26 25 24 23 24 24 24 24 24 23 21 21 22
27 27 27 28 29 28 26 25 24 23 22 22 23 24 26 27 27 28 29 27 23 19 16 14 13 14 14 16 17 19 20 21 21 20 20 20 19 19 18 17 17 18 19 19 19 21 23 23 24 26 25 23 23 23 24 24 23 21 21 21 20 20 22
27 28 28 28 28 25 23 23 22 21 21 23 25 25 25 24 23 20 17 15 13 12 11 10 11 13 15 16 17 17 18 18 17 17 18 18 18 18 17 17 17 17 18 18 19 20 22 23 23 24 22 21 22 23 23 21 20 20 20 20 19 19 21
24 24 24 24 23 21 19 20 21 22 23 23 24 24 24 22 20 14 7 10 10 8 9 11 12 13 14 14 14 15 15 14 14 15 16 17 17 17 17 16 17 17 17 19 19 20 22 22 22 22 21 20 21 21 21 20 20 19 19 19 18 19 20
22 21 21 21 21 21 21 21 21 21 22 21 22 22 21 20 20 14 6 7 7 8 9 10 11 12 13 13 13 13 13 13 14 14 15 16 17 17 16 16 17 18 18 19 20 20 21 21 20 20 20 20 20 20 21 21 21 19 18 19 19 19 19
19 19 18 19 20 20 21 22 21 20 20 20 20 19 17 18 19 13 5 5 8 10 10 11 11 12 12 12 12 13 14 14 15 15 15 16 17 18 18 18 18 19 20 20 19 19 20 20 20 20 20 20 20 20 21 21 20 20 19 19 18 18 19
20 19 18 19 20 20 21 21 20 20 20 19 18 18 18 17 15 11 9 9 12 12 12 12 11 12 12 12 13 14 14 15 16 16 16 17 17 18 19 19 19 18 19 19 19 20 20 20 19 19 20 20 20 20 20 21 20 19 19 18 17 19 19
24 23 22 21 20 20 20 20 19 19 19 18 19 19 18 14 11 11 12 14 14 13 13 13 13 13 13 13 14 15 15 16 17 17 17 17 18 19 19 19 18 18 19 19 19 20 19 19 19 19 19 20 20 19 19 20 20 19 19 18 18 18 18
27 26 25 23 21 19 19 19 18 19 19 19 20 19 15 11 9 11 14 15 15 15 15 15 15 15 15 15 16 16 16 17 17 17 17 18 18 19 19 19 19 20 19 19 19 19 19 19 20 20 20 20 20 20 20 21 21 20 19 18 18 19 19
Wind_Direction
287 284 280 277 277 280 286 290 288 284 282 282 282 280 281 284 286 286 286 286 285 284 283 282 281 281 281 281 280 279 279 278 277 277 276 275 274 273 270 269 267 266 279 284 284 285 288 291 293 292 292 293 294 295 295 294 292 293 294 294 295 296 297
286 282 276 273 275 280 286 288 285 281 279 278 278 278 280 284 286 286 285 283 282 282 281 280 279 279 280 280 278 277 276 276 275 274 274 272 270 270 269 267 267 268 274 282 284 284 286 289 290 289 289 291 293 295 296 294 291 291 292 292 292 292 293
284 280 274 273 276 280 284 285 282 279 276 275 275 277 281 284 285 285 283 281 279 279 279 278 278 278 278 278 276 275 274 273 273 272 271 270 268 268 269 267 266 267 269 277 282 282 285 289 288 286 287 290 290 291 292 291 290 289 289 289 289 289 289
282 277 274 274 276 280 282 282 280 275 272 273 274 278 281 284 285 284 281 278 278 278 277 276 275 275 276 275 273 272 272 271 271 270 268 268 268 266 268 268 264 263 265 272 277 280 282 285 287 286 287 288 289 289 289 289 289 289 288 288 288 288 289
280 275 274 274 276 279 280 281 279 273 271 273 275 278 281 283 284 283 279 277 276 276 275 273 272 273 274 273 271 269 270 269 269 269 267 267 267 266 267 268 265 263 264 267 273 278 281 283 284 285 284 285 286 288 289 288 288 289 288 288 288 288 289
278 275 274 275 276 278 280 280 277 274 273 276 277 279 281 283 284 282 278 276 275 275 274 272 272 273 272 270 269 267 268 269 269 269 268 267 267 267 267 267 267 265 265 266 270 275 279 281 282 283 282 282 282 282 285 288 290 290 288 287 287 288 290
278 276 275 275 277 279 280 279 277 276 277 278 280 281 282 283 282 279 276 275 275 275 275 274 273 274 273 270 269 268 268 269 269 268 267 267 267 268 267 266 267 267 265 265 268 271 275 277 278 277 277 279 281 280 281 284 286 288 288 288 287 286 288
279 277 276 276 278 280 279 278 276 277 278 280 281 283 283 283 280 277 276 276 276 276 275 276 276 275 274 273 271 270 270 270 270 268 267 267 267 266 265 264 265 265 264 264 266 269 271 273 274 272 273 277 278 277 277 278 278 279 284 288 288 286 286
280 278 277 277 279 280 279 277 276 278 280 281 283 284 283 281 278 276 276 275 276 277 276 276 276 275 275 275 274 274 273 272 270 267 265 266 265 263 261 261 261 262 262 262 264 265 267 268 267 267 270 273 271 268 273 278 278 276 278 282 285 286 285
281 279 279 279 280 280 278 277 277 280 281 281 280 280 279 277 275 274 273 272 272 273 273 272 272 272 273 273 272 270 268 266 265 262 261 263 263 259 257 256 257 257 258 258 258 260 264 263 260 262 266 269 271 271 273 275 275 274 278 280 280 283 286
281 281 282 282 282 280 279 278 280 282 282 279 278 278 276 275 274 273 273 271 270 269 269 270 269 269 269 268 267 265 264 262 261 261 261 262 262 261 260 258 256 256 256 255 256 258 259 257 257 263 267 270 273 273 271 270 271 271 273 275 272 276 287
283 284 285 284 282 280 279 280 283 283 281 280 280 281 280 279 278 278 276 272 269 268 270 270 269 267 266 266 266 265 265 264 264 264 263 263 263 263 262 261 260 259 258 257 258 259 258 255 259 265 267 269 271 271 270 269 269 267 264 265 264 261 273
284 285 286 284 282 282 281 283 284 284 281 281 283 282 282 283 282 281 279 274 271 271 270 269 269 269 268 268 267 266 265 264 265 266 265 264 264 263 263 264 266 267 267 266 266 265 264 263 264 264 266 268 269 269 268 267 265 266 263 259 261 260 266
285 286 285 284 283 283 283 284 286 285 282 282 282 282 283 285 285 283 281 277 275 274 272 273 275 273 272 271 270 269 269 268 268 268 268 268 266 265 265 266 269 273 274 274 272 268 266 267 266 264 264 268 268 266 263 262 262 265 264 261 264 266 270
286 286 286 285 285 284 284 285 286 285 282 283 283 283 285 287 287 285 282 280 279 278 278 280 279 276 274 273 273 273 272 270 270 270 269 268 267 268 270 270 273 276 276 276 274 270 269 269 268 267 267 268 269 267 265 264 263 266 269 269 271 272 272
285 286 286 286 286 284 283 285 286 284 283 285 285 285 287 286 285 284 282 281 281 281 282 282 280 278 276 274 274 276 274 270 268 265 263 264 266 268 270 271 274 277 277 276 274 271 271 271 272 272 271 271 271 269 269 269 267 267 268 267 266 267 267
287 287 286 286 285 283 282 285 287 285 284 285 285 285 286 285 283 281 280 280 282 282 282 282 281 279 277 275 277 278 276 274 270 264 260 260 261 264 266 268 272 276 278 279 278 276 276 277 278 279 279 280 279 279 282 285 279 273 272 268 260 259 264
287 287 285 284 283 282 282 284 287 287 285 285 285 285 285 284 282 281 280 280 281 281 280 280 281 280 275 274 277 275 274 277 274 266 262 262 264 265 267 270 274 275 277 280 281 283 284 285 286 288 288 288 287 289 294 296 288 282 280 276 270 269 272
287 286 286 285 283 283 282 283 287 289 286 285 285 284 283 281 279 278 278 278 278 278 279 279 281 281 276 273 275 274 274 277 275 270 269 270 270 268 268 273 278 277 277 280 282 284 287 289 289 290 291 290 290 290 293 292 289 285 278 270 267 268 271
287 286 286 287 285 284 283 283 287 291 289 285 284 283 281 279 277 275 275 276 275 276 277 277 278 280 279 276 276 277 277 280 280 279 279 277 273 271 276 282 284 283 286 293 293 292 293 293 293 292 292 292 292 292 293 292 290 285 276 270 267 264 260
287 285 286 287 286 285 285 285 287 291 290 286 283 282 281 280 279 277 274 274 274 273 273 274 274 276 277 275 275 277 280 283 284 283 282 282 279 280 286 293 296 298 301 301 298 296 295 294 293 294 294 294 293 293 294 293 291 286 279 272 267 263 259
287 285 286 288 287 286 287 288 289 291 292 289 284 281 281 280 279 278 276 274 272 271 270 270 269 270 274 273 273 277 282 284 283 284 286 288 287 290 299 310 314 310 307 303 299 297 294 292 292 292 292 293 293 293 295 294 292 289 283 276 268 265 263
286 285 285 287 288 287 288 291 293 293 292 291 287 283 282 282 281 280 280 277 273 271 271 271 272 275 278 278 278 282 286 285 286 291 295 294 297 305 312 315 312 310 307 303 298 294 290 288 289 290 290 292 293 294 295 294 292 289 285 280 274 269 265
284 283 282 284 287 288 289 292 295 295 293 292 291 287 283 282 282 284 285 283 280 279 279 280 281 282 283 284 286 289 292 292 293 299 301 301 305 310 310 310 309 309 307 302 296 291 287 288 289 290 290 292 293 295 295 293 292 289 285 281 277 273 270
281 279 279 280 282 285 289 292 293 293 294 293 292 290 285 282 282 284 286 285 283 282 282 282 282 283 285 290 295 297 296 295 295 299 301 303 306 306 306 307 306 305 303 298 292 290 289 290 291 292 292 294 295 296 296 295 295 293 290 287 284 280 277
278 277 276 276 278 281 286 289 289 289 292 294 292 290 286 281 279 279 279 277 275 274 275 277 279 283 287 290 292 292 292 292 293 295 297 298 300 302 303 302 302 301 299 293 289 290 289 290 294 296 296 297 298 296 296 298 297 295 294 293 291 287 281
274 273 272 272 276 278 281 284 284 284 288 291 290 287 283 278 278 277 275 272 270 270 272 274 276 277 277 276 275 277 282 288 291 293 295 296 298 299 299 298 298 296 292 288 287 289 290 292 296 298 298 298 297 294 296 299 297 293 293 293 291 286 281
272 270 270 270 273 275 277 278 278 279 284 288 286 283 281 279 279 277 274 272 271 270 270 270 268 265 264 268 275 280 285 290 293 295 296 297 298 298 298 298 295 291 288 288 289 290 292 295 297 298 298 297 294 293 297 301 297 291 289 291 289 283 279
271 271 271 269 269 270 270 271 277 282 287 287 283 280 276 274 274 275 274 271 266 259 253 252 256 264 275 285 292 295 297 298 299 299 297 296 299 301 300 298 295 293 292 292 292 291 293 295 297 297 296 294 293 297 301 302 298 292 290 291 288 281 277
270 273 273 270 271 271 268 272 283 291 292 289 288 285 280 278 283 285 273 251 232 224 235 258 278 288 295 300 301 301 301 302 302 301 299 299 301 300 298 296 294 292 292 292 292 291 292 294 295 294 293 294 297 300 302 301 299 295 292 290 285 280 279
275 279 280 279 283 287 285 286 291 294 293 291 291 292 291 293 301 305 263 219 221 241 268 287 295 297 300 301 299 297 297 298 299 300 300 301 301 299 297 294 291 291 294 293 292 291 292 293 291 289 292 296 299 300 301 303 303 298 292 289 284 279 280
285 287 287 288 290 293 295 296 294 292 292 291 292 296 299 299 300 299 261 224 254 282 291 295 296 295 298 299 294 292 293 292 294 295 296 298 298 297 295 292 291 294 296 293 291 292 292 291 289 290 294 297 297 299 302 305 305 302 298 296 292 286 286
286 288 291 293 294 295 296 297 297 296 296 296 296 299 302 300 296 290 269 265 290 298 300 299 294 291 293 293 289 290 290 288 288 290 291 292 293 293 294 294 295 297 296 292 289 290 289 289 290 293 296 295 295 299 302 304 305 304 302 301 297 294 296
292 291 291 291 293 295 296 297 299 299 298 299 298 296 294 290 280 263 257 283 300 303 301 297 289 284 286 287 285 286 286 285 286 288 287 288 291 294 296 298 300 300 296 292 290 289 287 288 291 292 294 295 296 299 301 301 303 303 300 300 300 298 299
296 296 297 296 293 292 293 295 297 297 296 294 292 288 284 278 265 260 274 290 299 300 296 291 284 281 282 282 282 283 283 284 286 287 286 287 292 295 298 299 299 298 296 292 290 288 287 290 292 292 293 293 293 296 299 299 300 300 297 296 298 297 298
294 297 300 299 296 293 292 292 293 294 294 291 288 286 288 293 296 295 295 295 295 295 292 287 283 282 282 282 282 283 283 284 285 286 287 288 291 293 296 297 297 298 297 295 291 289 290 292 292 291 292 293 292 294 297 297 296 297 295 294 297 297 296